ข้อมูลล่าสุด:
21/09/2017 ยินดีตอนรับสู่ PokerThai99.com โปรโมชั่นสำหรับสมาชิกใหม่ รับโบนัสฟรี 10%. ฝากขั้นต่ำเพียง 100 บาท.

แจ็คพอต

ข้อมูลแจ็คพอต ผู้ชนะ แจ็คพอต

Super royal flush jackpot กำลังจะเกิดขึ้นทีนี้

เข้าร่วมกับรางวัลระดับโลกปัจจุบันที่มีอยู่แล้วในเกมของเรากับระบบแจ็คพอตล่าสุดและผลตอบแทนที่ใหญ่กว่าที่คุณสามารถซื้อแจ็คพอตที่ราคาขนาดเล็กเป็น 100 ชิป

แจ็คพอตไม่ต้องซื้อ แต่เราให้เป็นคุณสมบัติพิเศษให้กับสมาชิกของ pokerthai99.com

ระบบจะมีรางวัลโบนัสเพิ่มขึ้น pokerthai99.com ให้ติดตาม

  1. Full House X 10 ราคาแจ็คพอตที่คุณจะซื้อ
      (ตัวอย่าง: คุณซื้อ 1,000 ชิพแล้ว: 1,000 X 10 = 10,000)
  2. Four of a Kind X 250 ราคาแจ็คพอตที่คุณจะซื้อ
      (ตัวอย่าง: คุณซื้อ 1,000 ชิพแล้ว: 1,000 x 250 = 250,000)
  3. Straight Flush x 1,200 ราคาแจ็คพอตที่คุณจะซื้อ
      ((ตัวอย่าง: คุณซื้อ 1,000 ชิพแล้ว: 1,000 x 1,200 = 1,200,000)
  4. Royal Flush X 10,000 ราคาแจ็คพอตที่คุณจะซื้อ
      (ตัวอย่าง: คุณซื้อ 1,000 ชิพแล้ว: 1,000 x 10,000 = 10,000,000)
  5. Super Royal Flush X 30,000 ราคาแจ็คพอตที่คุณจะซื้อ
      (ตัวอย่างเช่น: คุณซื้อ 0.1 แล้ว: 1,000 × 30,000 = 30,000,000)

เงื่อนไขการใช้บัตร:

  1. Full House เงื่อนไขในการที่บัตรของคุณและบัตรกลางมีทั้งหมด 7 บัตรจะได้รับไพ่ 5 ใบที่มีมูลค่ารวม 1 คู่ในไพ่สามใบ เช่น 3 ใบ 10 และ 2 ใบของ 5/li>
  2. Four of a Kind เงื่อนไขในการที่บัตรของคุณและบัตรกลางมีทั้งหมด 7 บัตรจะได้รับไพ่ 5 ใบที่มีมูลค่ารวมของไพ่ 4 ใบจำนวนเดียวกันและหนึ่ง (1) บัตร ตัวอย่างเช่นคุณจะได้รับ 4 ใบจาก 3 บัตร (3 S, 3 H, 3-C, 3-D) และบัตร 1 ของชนิด/li>
  3. เStraight Flush เงื่อนไขในการที่บัตรของคุณและบัตรกลางมีทั้งหมด 7 บัตรจะได้รับไพ่ 5 ใบที่มีดอกเดียวกันและมูลค่าต่อเนื่องเช่นบัตรของคุณอาจลำดับ 5-h, 6-h, 7-h, 8-h, 9-h 10-h.
  4. Royal Flush เงื่อนไขในการที่บัตรของคุณและบัตรกลางมีทั้งหมด 7 บัตรจะได้รับไพ่ 5 ใบที่มีดอกเดียวกันและมูลค่าต่อเนื่องกันกับการ์ดที่เล็กที่สุดในลำดับที่ 10 เช่น 10-s, J-s, Q-s, K-s, และ A-s.
  5. Super Royal flush เงื่อนไขที่ไพ่สองใบที่คุณมีอยู่ในมือรวมกับ 3 อันดับแรกเปิดไพ่บนโต๊ะที่มีอยู่แล้วรอยัลฟลัช ตัวอย่างเช่นครั้งแรกของคุณ 2 ใบในมือเป็น 10 และ Qs และอีก 3 บัตรทีโชว์อยู่บนโต๊ะเป็น J-s, K-s, และ A-s.

คำอธิบายดังกล่าวข้างต้นเป็นคำอธิบาย ของหลายแจ็คพอตที่pokerthai99.comขอขอบคุณและขอแสดงความยินดีในการเล่นเกมของเรา เราหวังว่าทุกท่านโชคดี!

Texas Poker ผู้ชนะ แจ็คพอต

TOP SUPER ROYAL FLUSH
No.วันที่ชื่อราคาชนะ
121/09 07:46AKABAD1Super Royal flush40.540.54
221/09 04:40DRAKULA999Super Royal flush16.216.22
320/09 23:08CIPAPOH98Super Royal flush40.540.54
420/09 21:04DKGAM05Super Royal flush81.081.08
520/09 19:13OGENK1Super Royal flush16.216.22
TOP ROYAL FLUSH
No.วันที่ชื่อราคาชนะ
121/09 08:17AMALIATULRoyal flush5.405.41
221/09 05:49MONCROT168Royal flush1.351.35
321/09 04:11MANTAP707Royal flush5.405.41
421/09 03:01SAKTILORoyal flush54.054.05
521/09 02:56TOEKYOGIERoyal flush2.702.70
TOP STRAIGHT FLUSH
No.วันที่ชื่อราคาชนะ
121/09 08:32TOMMIV9Straight Flush1.621.62
221/09 08:31ANDYLAUU88Straight Flush648.65
321/09 08:28GBER4CA8WJStraight Flush3.243.24
421/09 08:11EE77164AStraight Flush1.621.62
521/09 08:10BAFOYA99Straight Flush324.32
P_LASTJACK
No.วันที่ชื่อราคาชนะ
121/09 08:32ARISS_SOSFull House13.51
221/09 08:32NG4BR377Full House13.51
321/09 08:32EA78EE15Full House27.03
421/09 08:32WAW99WAWFull House54.05
521/09 08:32TOMMIV9Straight Flush1.621.62
621/09 08:31GEMINI303Full House2.70
721/09 08:31KANG86Full House27.03
821/09 08:31HARRIQQFull House1.35
921/09 08:31OPPOYOFull House13.51
1021/09 08:31GENDON9999Full House13.51
1121/09 08:31ANDYLAUU88Straight Flush648.65
1221/09 08:31PAKRT29Full House13.51
1321/09 08:31VANDHEFull House2.70
1421/09 08:30TEMP078Full House5.41
1521/09 08:30TETO1512Full House1.35
1621/09 08:30KALIKA88Full House1.35
1721/09 08:30MYIL9E6HYCFull House5.41
1821/09 08:30ES_OYENFull House13.51
1921/09 08:30RIMHAFull House54.05
2021/09 08:30ADEL419Full House2.70
2121/09 08:30UPIK7Full House54.05
2221/09 08:30ALAMS1234Full House13.51
2321/09 08:29AXE72Full House27.03
2421/09 08:29SQDI4602XIFull House5.41
2521/09 08:29MISSION_01Full House13.51
2621/09 08:29RESBOSS90Full House27.03
2721/09 08:29JC6VO58OF1Full House2.70
2821/09 08:29AFQARIFull House27.03
2921/09 08:29ANDYLAUU88Full House5.41
3021/09 08:29NAWAWEIFull House13.51
3121/09 08:28DRAGON_NSTFull House13.51
3221/09 08:28BHORES10Full House13.51
3321/09 08:28KANG86Full House27.03
3421/09 08:28SANEL77Full House5.41
3521/09 08:28GBER4CA8WJStraight Flush3.243.24
3621/09 08:28RASUOFull House13.51
3721/09 08:28HOKI123_Full House5.41
3821/09 08:28TEMP078Full House2.70
3921/09 08:28AMK17Full House5.41
4021/09 08:28ADEL419Full House2.70
4121/09 08:28A4RXDMXR2YFull House5.41
4221/09 08:28SENDI79Full House2.70
4321/09 08:27VIALOVEFour Of A Kind135.14
4421/09 08:27AAKKQQJ100Full House13.51
4521/09 08:27MONDRITA90Full House13.51
4621/09 08:27GREETZ426Full House13.51
4721/09 08:27MILKYWILKYFull House5.41
4821/09 08:27AJAN66Full House2.70
4921/09 08:27SSWORDFull House27.03
5021/09 08:27F5E99EE2Full House2.70
ข้อมูลแจ็คพอต ผู้ชนะ แจ็คพอต

Domino Multi Jackpot System

เข้าร่วมกับรางวัลระดับโลกในปัจจุบันที่มีอยู่แล้วในระบบของเรากับระบบแจ็คพอตใหม่ล่าสุดและเป็นครั้งแรกในประเทศอินโดนีเซียที่คุณสามารถซื้อแจ็คพอตในราคาเพียง 100 และมีโอกาสที่จะชนะ

แจ็คพ็อตไม่จำเป็นที่จะต้องซื้อ แต่เราให้มันเป็นคุณสมบัติพิเศษให้กับสมาชิกของ pokerthai99.com

มีแจ็คพอต 4 ราคาที่คุณสามารถเลือกที่จะซื้อ: USD 100, 500, 1000 และ 2000 (เฉพาะโต๊ะวีไอพีพิเศษและด้านบน)

รางวัลแจ็คพอตหลายระบบใน pokerthai99.com ดังต่อไปนี้:

  1. small Pure X 50 ราคาแจ็คพอตที่คุณจะซื้อ
      (ตัวอย่าง: คุณซื้อแล้ว 100 X 50 = 5000)
  2. Large Pure X 50 แจ็คพอตที่คุณจะซื้อ
      (ตัวอย่าง: คุณซื้อแล้ว 100 X 50 = 5000)
  3. Doublet X 0.01 ราคาแจ็คพอตที่คุณจะซื้อ
      (ตัวอย่าง: คุณซื้อแล้ว 100 X 1000 = 100000)
  4. Six Dewa X ราคา 6,666 แจ็คพอตที่ที่คุณจะซื้อ
      (ตัวอย่าง: คุณซื้อแล้ว 100 X 6666 = 666600)

คำอธิบายดังกล่าวข้างต้นเป็นคำอธิบาย ของหลายแจ็คพอตที่ pokerthai99.com ขอขอบคุณและขอแสดงความยินดีในการเล่นเกมของเรา เราหวังว่าทุกท่านโชคดี!

Domino ผู้ชนะ แจ็คพอต

TOP ENAM DEWA
No.วันที่ชื่อราคาชนะ
121/09 08:28QETUOPMBCZmurni enam9.008.11
221/09 06:10BHUST3Rmurni enam1.801.62
321/09 02:26SHIOMI85murni enam9.008.11
421/09 02:01KZZZZZmurni enam9.008.11
521/09 01:02A9USS99murni enam18.016.22
TOP BALAK
No.วันที่ชื่อราคาชนะ
121/09 08:27DEVILITO10balak270.27
221/09 08:26SULLE1974balak27.03
321/09 08:26BLUEDEVIL8balak270.27
421/09 08:17NTOL030balak270.27
521/09 08:17AD4829balak270.27
P_LASTJACK
No.วันที่ชื่อราคาชนะ
121/09 08:32JR233murni besar135.14
221/09 08:30DSLR360murni kecil135.14
321/09 08:29TRAVEL199murni besar67.57
421/09 08:29BEJECKmurni besar13.51
521/09 08:28COKI15murni kecil13.51
621/09 08:28KOCIKKKmurni kecil67.57
721/09 08:28QETUOPMBCZmurni enam9.008.11
821/09 08:27DEVILITO10balak270.27
921/09 08:26SULLE1974balak27.03
1021/09 08:26BLUEDEVIL8balak270.27
1121/09 08:25FELISHAAmurni kecil135.14
1221/09 08:24SEXJONmurni besar135.14
1321/09 08:21AR1YANSAHmurni besar67.57
1421/09 08:21VERLORENmurni besar135.14
1521/09 08:20BG63R0Tmurni kecil135.14
1621/09 08:20J4L4NG14murni besar13.51
1721/09 08:18BMY4RI5murni kecil135.14
1821/09 08:17VERLORENmurni besar135.14
1921/09 08:17NTOL030balak270.27
2021/09 08:17AD4829balak270.27
2121/09 08:15DM213499murni kecil135.14
2221/09 08:15SUN2011murni besar13.51
2321/09 08:14PANDU2016murni kecil67.57
2421/09 08:13WACIKJPmurni kecil67.57
2521/09 08:13ALDI1986balak135.14
2621/09 08:12FERDYANSmurni besar13.51
2721/09 08:11JR2310murni kecil67.57
2821/09 08:11JOE20184murni besar67.57
2921/09 08:11JORTOK1119murni kecil67.57
3021/09 08:10WAHYUMULYAmurni kecil135.14
3121/09 08:06JR233balak135.14
3221/09 08:02JONKE433murni kecil13.51
3321/09 08:0299JAGO99murni besar135.14
3421/09 08:01BRSmurni besar135.14
3521/09 08:01HPJADULmurni besar67.57
3621/09 07:59MZGUSAYmurni kecil13.51
3721/09 07:59QUATRIK84murni besar67.57
3821/09 07:58DM213499murni besar135.14
3921/09 07:57PUTRA_338murni kecil67.57
4021/09 07:57IBRO72murni besar135.14
4121/09 07:55DISEPAKmurni besar67.57
4221/09 07:54QUATRIK84balak135.14
4321/09 07:53NDXAK46murni besar13.51
4421/09 07:52DM213499murni besar135.14
4521/09 07:51DMC888murni kecil13.51
4621/09 07:51J4L4NG14murni besar13.51
4721/09 07:50CELEBES_9murni besar135.14
4821/09 07:49RULLYANDRObalak270.27
4921/09 07:49IBRO72murni besar67.57
5021/09 07:49TIGANCIBROmurni besar67.57
ข้อมูลแจ็คพอต ผู้ชนะ แจ็คพอต

JACKPOT WINNER CEME

แจ็คพอตที่รวมกันจากทั้งผู้เล่นและตัวแทนจำหน่าย ตัวแทนจำหน่ายควรซื้อรางวัลแจ็คพอตให้มากที่สุดเท่าที่จำนวนของผู้เล่นทุกคนที่กำลังเล่น ตัวอย่างเช่นถ้ามีผู้เล่น 3 คนที่กำลังนั่งอยู่ในการเล่นและตัวแทนจำหน่ายได้ตัดสินใจที่จะซื้อ 100

แจ็คพอตจากนั้นในช่วงเวลานี้ตัวแทนจำหน่ายที่จะซื้อรางวัลมากที่สุดเท่าที่ 3 X 100 = 300 เหรียญสหรัฐ

แจ็คพ็อตไม่จำเป็นที่จะต้องซื้อ แต่เราให้มันเป็นคุณสมบัติพิเศษให้กับสมาชิกของ pokerthai99.com มีแจ็คพ็อต 3 ราคให้คุณสามารถเลือกที่จะซื้อคือ 100 เหรียญสหรัฐ, 500, และ 100

รางวัลแจ็คพอตหลายระบบใน pokerthai99.com ดังต่อไปนี้:

  1. small Pure X 50 ราคาแจ็คพอตที่คุณจะซื้อ
      (ตัวอย่าง: คุณซื้อแล้ว 100 X 50 = 5000)
  2. Large Pure X 50 แจ็คพอตที่คุณจะซื้อ
      (ตัวอย่าง: คุณซื้อแล้ว 100X 50 = 5000)
  3. Doublet X 200 ราคาแจ็คพอตที่คุณจะซื้อ
      (ตัวอย่าง: คุณซื้อแล้ว 100x 200 = 20000)
  4. Six Dewa X ราคา 6,666 แจ็คพอตที่คุณจะซื้อ
      (ตัวอย่าง: คุณซื้อแล้ว 100 X 6666 = 666600)

คำอธิบายดังกล่าวข้างต้นเป็นคำอธิบาย ของหลายแจ็คพอต pokerthai99.com ขอขอบคุณและขอแสดงความยินดีในการเล่นเกมของเรา เราหวังว่าทุกท่านโชคดี!

Ceme ผู้ชนะ แจ็คพอต

TOP ENAM DEWA
No.วันที่ชื่อราคาชนะ
121/09 08:05SASTRO75murni enam18.016.22
221/09 07:40JIBRIL_04murni enam1.801.62
321/09 07:21BONARSIJABmurni enam1.801.62
421/09 04:54CH1NM1murni enam18.016.22
521/09 04:54WINDY0030murni enam9.008.11
TOP BALAK
No.วันที่ชื่อราคาชนะ
121/09 08:31OILINbalak540.54
221/09 08:30KOMLEK88balak540.54
321/09 08:28ALFAT123balak540.54
421/09 08:28LURSAbalak540.54
521/09 08:25DATAWbalak540.54
P_LASTJACK
No.วันที่ชื่อราคาชนะ
121/09 08:32HERU1922murni besar67.57
221/09 08:32PUTRY0585murni besar135.14
321/09 08:31STARGIRLmurni besar135.14
421/09 08:31MOGOLL_murni besar135.14
521/09 08:31OILINbalak540.54
621/09 08:31ADJI3BIRDmurni besar13.51
721/09 08:31NAGASHIVmurni kecil13.51
821/09 08:30ASSASSSmurni besar13.51
921/09 08:30KOMLEK88balak540.54
1021/09 08:30AD8080YOmurni besar135.14
1121/09 08:30VERTESmurni kecil135.14
1221/09 08:30GUSZDOERmurni kecil67.57
1321/09 08:30SIKEREI_02murni kecil13.51
1421/09 08:29BURRAYUT81murni besar135.14
1521/09 08:29UISQ9XGH7Amurni besar135.14
1621/09 08:29CHECYL19murni besar135.14
1721/09 08:29SEDUNIAXXXmurni besar135.14
1821/09 08:29ELANG578murni besar135.14
1921/09 08:28JECKY6666murni besar135.14
2021/09 08:28STARGIRLmurni kecil135.14
2121/09 08:28JATMIKO86murni kecil13.51
2221/09 08:28JUSELAmurni kecil135.14
2321/09 08:28ALFAT123balak540.54
2421/09 08:28LURSAbalak540.54
2521/09 08:27QMHT7TWWOHmurni kecil135.14
2621/09 08:27SJ1506PMYQmurni kecil135.14
2721/09 08:27SAIFUL16murni besar135.14
2821/09 08:27ZAHWABJM22murni besar67.57
2921/09 08:26TROSKUTRR0murni kecil135.14
3021/09 08:26LANGGENG66murni besar135.14
3121/09 08:26PLONG099murni besar135.14
3221/09 08:25KANDANG18murni kecil13.51
3321/09 08:25PACEGOBANGmurni kecil135.14
3421/09 08:25DATAWbalak540.54
3521/09 08:25SJ1506PMYQmurni kecil135.14
3621/09 08:25MLAA_Rmurni kecil135.14
3721/09 08:25OHENGERVbalak270.27
3821/09 08:24HANSWENDmurni kecil135.14
3921/09 08:24MUDINPOmurni kecil135.14
4021/09 08:24VERTESbalak540.54
4121/09 08:24LOVE3RAJAbalak270.27
4221/09 08:24VERTESmurni kecil135.14
4321/09 08:24BLOW33murni kecil135.14
4421/09 08:24CIEQmurni kecil67.57
4521/09 08:24RIANLAU87murni kecil67.57
4621/09 08:23CL_99balak540.54
4721/09 08:23LIAFIRIANAmurni besar13.51
4821/09 08:23KOMLEK88balak540.54
4921/09 08:23NAUFALDZbalak540.54
5021/09 08:22AWALNYAmurni besar135.14